Location: Eaton Estates
(41.3089°N, 82.0057°W)
Time: 02:28:58
(UTC+00:00)

BEESAT 2 - Pass Details

Date: 05 April 2023
Orbit: 429 x 466 km, 64.9° (Epoch: 07 June)

Event Time Altitude Azimuth Distance (km) Brightness Sun altitude
Exits shadow 09:05:43 37° 142° (SE) 735 ? -21.9°
Maximum altitude 09:06:16 40° 117° (ESE) 698 ? -21.8°
Drops below altitude 10° 09:09:43 10° 47° (NE) 1,645 ? -21.2°
Enters shadow 10:05:25 -69° 214° (SW) 12,373 ? -11.7°
